Torna al catalogo

OPS 4682 DEB

AttivoPO
NORAD 59149·DEBRIS·🇺🇸 United States

Lanciato Apr 3, 1965 da Vandenberg Space Force Base

Loading…

Prossimi Passaggi (prossime 24 ore)

TLE

AggiornatoSource: Space-Track

Epoca: Sep 14, 2026, 07:18 UTC

1 59149U 65027HR  26257.30463077 -.00000283  00000-0 -93932-3 0  9994
2 59149  90.2589  19.3090 0037284 259.3813 100.3110 13.01730712517240

Traccia OPS 4682 DEB in tempo reale con AllMySat

Download on the App Store